This demonstration page uses our WeatherBlox Daily Observations layout. Learn more.

Left ArrowRight Arrow

38.88101, -77.10428

Hourly Observations for January 6, 2021

Temp ( °F °C ) Dew Point ( °F °C ) Humidity (%) Winds ( mph kmh ) Pressure ( in mb ) Visibility ( mi km ) Precip ( " mm )
12:52 am 00:52 Cloudy 40 4.4 32 0 73 73 NW 10 17 30.03 1017 10 16 0.00 0.00
1:52 am 01:52 Cloudy 40 4.4 31 -0.6 70 70 NW 13 20 30.05 1018 10 16 0.00 0.00
2:52 am 02:52 Cloudy 40 4.4 31 -0.6 70 70 NW 13 20 30.06 1018 10 16 0.00 0.00
3:52 am 03:52 Cloudy 40 4.4 31 -0.6 70 70 NNW 12 19 30.06 1018 10 16 0.00 0.00
4:52 am 04:52 Cloudy 40 4.4 31 -0.6 70 70 NNW 13 20 30.07 1018 10 16 0.00 0.00
5:52 am 05:52 Cloudy 40 4.4 30 -1.1 68 68 NW 12 19 30.09 1019 10 16 0.00 0.00
6:52 am 06:52 Cloudy 40 4.4 30 -1.1 68 68 NW 13 20 30.10 1019 10 16 0.00 0.00
7:52 am 07:52 Cloudy 40 4.4 30 -1.1 68 68 NW 10 17 30.12 1020 10 16 0.00 0.00
8:52 am 08:52 Cloudy 41 5 30 -1.1 65 65 NW 13 20 30.14 1021 10 16 0.00 0.00
9:52 am 09:52 Cloudy 41 5 29 -1.7 62 62 NW 12 19 30.15 1021 10 16 0.00 0.00
10:52 am 10:52 Cloudy 42 5.6 29 -1.7 60 60 NW 16 26 30.14 1021 10 16 0.00 0.00
11:52 am 11:52 Cloudy 43 6.1 30 -1.1 60 60 NW 22 35 30.12 1020 10 16 0.00 0.00
12:52 pm 12:52 Cloudy 42 5.6 29 -1.7 60 60 NW 17 28 30.11 1020 10 16 0.00 0.00
1:52 pm 13:52 Cloudy 42 5.6 28 -2.2 58 58 NW 20 31 30.11 1020 10 16 0.00 0.00
2:52 pm 14:52 Cloudy 42 5.6 28 -2.2 58 58 NW 20 31 30.13 1020 10 16 0.00 0.00
3:52 pm 15:52 Cloudy 42 5.6 28 -2.2 58 58 NW 21 33 30.14 1021 10 16 0.00 0.00
4:52 pm 16:52 Cloudy 41 5 27 -2.8 57 57 NW 15 24 30.16 1021 10 16 0.00 0.00
5:52 pm 17:52 Cloudy 41 5 27 -2.8 57 57 NNW 16 26 30.18 1022 10 16 0.00 0.00
6:52 pm 18:52 Cloudy 40 4.4 27 -2.8 60 60 NNW 12 19 30.19 1022 10 16 0.00 0.00
7:52 pm 19:52 Cloudy 40 4.4 27 -2.8 60 60 NW 7 11 30.18 1022 10 16 0.00 0.00
8:52 pm 20:52 Cloudy 40 4.4 27 -2.8 60 60 NW 8 13 30.19 1022 10 16 0.00 0.00
9:52 pm 21:52 Cloudy 40 4.4 27 -2.8 60 60 NW 6 9 30.19 1022 10 16 0.00 0.00
10:52 pm 22:52 Mostly Cloudy 39 3.9 26 -3.3 60 60 NW 7 11 30.18 1022 10 16 0.00 0.00
11:52 pm 23:52 Mostly Cloudy 38 3.3 27 -2.8 65 65 NNW 9 15 30.17 1022 10 16 0.00 0.00

Powered by AerisWeather